Flag for Germany Weather past 2 weeks in Ahlen, North Rhine-Westphalia, Germany

Now
45 °F

Partly sunny.


Feels Like: 39 °F
Forecast: 33 / 52 °F
Wind: 10 mph from Northeast

Location: Dortmund / Wickede

Current Time: Apr 27, 2015 at 12:57:11 PM

Latest Report: Apr 27, 2015 at 12:20 PM


Visibility: N/A

Pressure: 29.74 "Hg

Humidity: 81%

Dew point: 39 °F

Location of AhlenLocation

Historic Weather in Ahlen — Graph

°F

Ahlen temperature yesterday

Maximum temperature yesterday: 63 °F (at 2:20 PM)
Minimum temperature yesterday: 52 °F (at 5:20 AM)
Average temperature yesterday: 56 °F

Past Weeks' High & Low Weather Summary

 TemperatureHumidityPressure
High73 °F (Apr 15, 4:20 PM)94% (Apr 27, 5:20 AM)30.45 "Hg (Apr 27, 5:20 AM)
Low34 °F (Apr 18, 5:20 AM)18% (Apr 21, 4:50 PM)29.62 "Hg (Apr 27, 5:20 AM)
Average53 °F59%30.12 "Hg
* Reported Apr 12 11:20 AM — Apr 27 11:20 AM, Ahlen, Weather by CustomWeather, © 2015

Note: Actual official high and low records may vary slightly from our data, if they occured in-between our weather recording intervals... More about our weather records

Advertising

Ahlen weather history for previous 24 hours

 ConditionsComfort  
Time TempWeatherWind HumidityBarometerVisibility
11:20 AM
Mon, Apr 27
43 °FDrizzle. Partly sunny.10 mph93%29.71 "Hg4 mi
10:50 AM43 °FPartly sunny.10 mph93%29.71 "Hg6 mi
10:20 AM43 °FPartly sunny.12 mph93%29.71 "Hg6 mi
9:50 AM43 °FDrizzle. Partly sunny.10 mph93%29.68 "Hg4 mi
9:20 AM45 °FDrizzle. Partly sunny.13 mph87%29.68 "Hg4 mi
8:50 AM45 °FDrizzle. Partly sunny.8 mph93%29.68 "Hg4 mi
8:20 AM45 °FDrizzle. Partly sunny.8 mph93%29.68 "Hg4 mi
7:50 AM45 °FDrizzle. Partly sunny.10 mph93%29.65 "Hg4 mi
7:20 AM46 °FDrizzle. Partly sunny.10 mph87%29.65 "Hg4 mi
6:50 AM46 °FDrizzle. Low clouds.12 mph93%29.62 "Hg4 mi
6:20 AM46 °FLight rain. Passing clouds.12 mph93%29.62 "Hg4 mi
5:20 AM48 °FLight rain. Fog.8 mph94%29.62 "Hg2 mi
10:50 PM
Sun, Apr 26
54 °FPassing clouds.5 mph82%29.65 "HgN/A
10:20 PM54 °FPassing clouds.3 mph82%29.68 "HgN/A
9:50 PM54 °FClear.3 mph82%29.68 "Hg10 mi
9:20 PM54 °FSunny.5 mph82%29.68 "Hg10 mi
8:50 PM54 °FSunny.5 mph82%29.68 "Hg10 mi
8:20 PM55 °FSunny.5 mph82%29.68 "Hg10 mi
7:50 PM55 °FSunny.6 mph82%29.68 "Hg10 mi
7:20 PM57 °FSunny.7 mph77%29.68 "Hg10 mi
6:50 PM59 °FPassing clouds.10 mph72%29.65 "HgN/A
6:20 PM59 °FSunny.7 mph72%29.65 "Hg10 mi
5:50 PM59 °FPassing clouds.7 mph63%29.65 "HgN/A
5:20 PM59 °FPassing clouds.7 mph68%29.68 "HgN/A
4:50 PM61 °FPassing clouds.6 mph63%29.68 "HgN/A
4:20 PM59 °FScattered showers. Clear.7 mph77%29.68 "HgN/A
3:50 PM55 °FSprinkles. Partly sunny.9 mph82%29.71 "HgN/A
3:20 PM55 °FSprinkles. Partly sunny.12 mph77%29.71 "HgN/A
2:50 PM59 °FScattered clouds.9 mph68%29.71 "HgN/A
2:20 PM63 °FScattered clouds.9 mph64%29.71 "HgN/A
1:50 PM61 °FScattered clouds.8 mph68%29.71 "HgN/A
1:20 PM59 °FScattered clouds.10 mph68%29.71 "HgN/A
12:50 PM61 °FScattered clouds.12 mph72%29.71 "HgN/A
12:20 PM57 °FScattered clouds.10 mph77%29.74 "HgN/A
Weather by CustomWeather, © 2015

See weather overviewHow to use our weather pages